Sigfox identifier Datetime Temperature Humidity SNR
002F0549 2019-04-23 15:08:41 16.3 31 23.7
002F0549 2019-04-23 14:33:46 16.1 31 23.8
002F0549 2019-04-23 13:58:51 16.1 31 23.7
002F0549 2019-04-23 13:23:56 16 31 23.9
002F0549 2019-04-23 12:49:00 15.9 31 23.9
002F0549 2019-04-23 12:14:02 15.8 31 23.7
002F0549 2019-04-23 11:39:04 15.7 31 23.8
002F0549 2019-04-23 11:04:10 15.7 31 23.9
002F0549 2019-04-23 10:29:15 15.5 30 23.9
002F0549 2019-04-23 09:54:19 15.5 31 23.9
002F0549 2019-04-23 09:19:24 15.5 31 23.6
002F0549 2019-04-23 08:44:28 15.5 30 23.4
002F0549 2019-04-23 08:09:32 15.5 30 23.5
002F0549 2019-04-23 07:34:37 15.5 30 23.5
002F0549 2019-04-23 06:59:42 15.5 30 23.5
002F0549 2019-04-23 06:24:45 15.5 30 23.5
002F0549 2019-04-23 05:49:49 15.5 30 23.6
002F0549 2019-04-23 05:14:51 15.5 30 23.6
002F0549 2019-04-23 04:39:56 15.5 30 23.5
002F0549 2019-04-23 04:05:00 15.5 30 23.5
002F0549 2019-04-23 03:30:07 15.5 30 23.6
002F0549 2019-04-23 02:55:13 15.5 30 23.5
002F0549 2019-04-23 02:20:20 15.5 30 23.4
002F0549 2019-04-23 01:45:26 15.5 30 23.3
002F0549 2019-04-23 01:10:33 15.5 30 23.3
002F0549 2019-04-23 00:35:39 15.5 30 23.2
002F0549 2019-04-23 00:00:46 15.5 30 23.1
002F0549 2019-04-22 23:25:53 15.6 30 22.9
002F0549 2019-04-22 22:50:59 15.5 30 22.9
002F0549 2019-04-22 22:16:05 15.7 30 22.9
002F0549 2019-04-22 21:41:09 15.7 30 23.1
002F0549 2019-04-22 21:06:13 15.7 30 23
002F0549 2019-04-22 20:31:17 15.7 30 22.9
002F0549 2019-04-22 19:56:22 15.7 30 22.9
002F0549 2019-04-22 19:21:25 15.7 30 22.9
002F0549 2019-04-22 18:46:29 15.8 30 23
002F0549 2019-04-22 18:11:33 15.9 30 23.1
002F0549 2019-04-22 17:36:37 15.9 30 23
002F0549 2019-04-22 17:01:43 15.9 30 23
002F0549 2019-04-22 16:26:46 15.9 30 22.9
002F0549 2019-04-22 15:51:51 15.7 30 23
002F0549 2019-04-22 15:16:56 15.7 30 23.1
002F0549 2019-04-22 14:42:00 15.7 30 23
002F0549 2019-04-22 14:07:05 15.7 30 23.1
002F0549 2019-04-22 13:32:08 15.7 30 23.2
002F0549 2019-04-22 12:57:11 15.6 30 23.2
002F0549 2019-04-22 12:22:14 15.6 30 23.3
002F0549 2019-04-22 11:47:17 15.5 30 23.3
002F0549 2019-04-22 11:12:21 15.5 30 23.3
002F0549 2019-04-22 10:37:28 15.7 30 23.4
002F0549 2019-04-22 10:02:34 15.5 30 23.4
002F0549 2019-04-22 09:27:40 15.5 30 23.5
002F0549 2019-04-22 08:52:47 15.5 30 23.5
002F0549 2019-04-22 08:17:54 15.5 29 23.6
002F0549 2019-04-22 07:43:01 15.5 29 23.6
002F0549 2019-04-22 07:08:09 15.5 29 23.5
002F0549 2019-04-22 06:33:17 15.5 29 23.5
002F0549 2019-04-22 05:58:25 15.5 29 23.6
002F0549 2019-04-22 05:23:33 15.5 29 23.6
002F0549 2019-04-22 04:48:40 15.4 29 23.6
002F0549 2019-04-22 04:13:48 15.5 29 23.6
002F0549 2019-04-22 03:38:55 15.4 29 23.5
002F0549 2019-04-22 03:04:03 15.5 29 23.5
002F0549 2019-04-22 02:29:11 15.4 29 23.5
002F0549 2019-04-22 01:54:18 15.3 29 23.6
002F0549 2019-04-22 01:19:23 15.5 29 23.5
002F0549 2019-04-22 00:44:28 15.3 29 23.4
002F0549 2019-04-22 00:09:35 15.4 29 23.4
002F0549 2019-04-21 23:34:43 15.3 29 23.3
002F0549 2019-04-21 22:59:49 15.3 29 23.4
002F0549 2019-04-21 22:24:55 15.3 29 23.4
002F0549 2019-04-21 21:50:00 15.5 29 23.3
002F0549 2019-04-21 21:15:06 15.5 29 23.3
002F0549 2019-04-21 20:40:14 15.4 29 23.2
002F0549 2019-04-21 20:05:21 15.4 29 23.1
002F0549 2019-04-21 19:30:29 15.5 29 23.1
002F0549 2019-04-21 18:55:37 15.5 29 23
002F0549 2019-04-21 18:20:46 15.3 29 23
002F0549 2019-04-21 17:45:55 15.4 29 22.8
002F0549 2019-04-21 17:11:02 15.3 29 22.7
002F0549 2019-04-21 16:36:09 15.3 29 22.7
002F0549 2019-04-21 16:01:15 15.3 29 22.6
002F0549 2019-04-21 15:26:20 15.3 29 22.6
002F0549 2019-04-21 14:51:25 15.3 29 22.6
002F0549 2019-04-21 14:16:30 15.3 29 22.5
002F0549 2019-04-21 13:41:36 15.3 29 22.6
002F0549 2019-04-21 13:06:40 15.3 29 22.7
002F0549 2019-04-21 12:31:44 15.3 29 22.7
002F0549 2019-04-21 11:56:49 15.3 29 22.7
002F0549 2019-04-21 11:21:53 15.3 29 22.6
002F0549 2019-04-21 10:46:57 15.3 29 22.7
002F0549 2019-04-21 10:12:02 15.3 29 22.8
002F0549 2019-04-21 09:37:07 15.3 28 22.8
002F0549 2019-04-21 09:02:11 15.4 28 22.9
002F0549 2019-04-21 08:27:16 15.5 28 22.7
002F0549 2019-04-21 07:52:22 15.5 28 22.7
002F0549 2019-04-21 07:17:26 15.5 28 22.8
002F0549 2019-04-21 06:42:30 15.5 28 22.9
002F0549 2019-04-21 06:07:36 15.5 28 23
002F0549 2019-04-21 05:32:41 15.5 28 23.1
002F0549 2019-04-21 04:57:46 15.5 28 23.2
002F0549 2019-04-21 04:22:50 15.5 28 23.2
002F0549 2019-04-21 03:47:55 15.5 28 23.2
002F0549 2019-04-21 03:12:59 15.5 28 23.3
002F0549 2019-04-21 02:38:03 15.5 28 23.3
002F0549 2019-04-21 02:03:07 15.5 28 23.2
002F0549 2019-04-21 01:28:11 15.5 28 23.2
002F0549 2019-04-21 00:53:14 15.5 28 23.1
002F0549 2019-04-21 00:18:19 15.5 28 23
002F0549 2019-04-20 23:43:23 15.5 28 23
002F0549 2019-04-20 23:08:28 15.4 28 22.9
002F0549 2019-04-20 22:33:33 15.4 28 22.8
002F0549 2019-04-20 21:58:38 15.5 28 22.9
002F0549 2019-04-20 21:23:43 15.5 28 22.8
002F0549 2019-04-20 20:48:48 15.5 28 22.9
002F0549 2019-04-20 20:13:51 15.5 28 23
002F0549 2019-04-20 19:38:55 15.5 28 22.9
002F0549 2019-04-20 19:04:00 15.5 28 22.7
002F0549 2019-04-20 18:29:04 15.5 28 22.8
002F0549 2019-04-20 17:54:09 15.5 28 22.9
002F0549 2019-04-20 17:19:13 15.5 28 22.9
002F0549 2019-04-20 16:44:16 15.5 28 22.9
002F0549 2019-04-20 16:09:23 15.5 28 23
002F0549 2019-04-20 15:34:30 15.5 28 22.8
002F0549 2019-04-20 14:59:37 15.5 28 22.7
002F0549 2019-04-20 14:24:44 15.4 28 22.6
002F0549 2019-04-20 13:49:51 15.4 28 22.6
002F0549 2019-04-20 13:14:59 15.5 27 22.7
002F0549 2019-04-20 12:40:07 15.5 27 22.7
002F0549 2019-04-20 12:05:14 15.5 27 22.7
002F0549 2019-04-20 11:30:22 15.5 27 22.6
002F0549 2019-04-20 10:55:28 15.5 27 22.5
002F0549 2019-04-20 10:20:37 15.5 27 22.6
002F0549 2019-04-20 09:45:45 15.5 27 22.7
002F0549 2019-04-20 09:10:52 15.5 27 22.8
002F0549 2019-04-20 08:36:00 15.5 27 22.9
002F0549 2019-04-20 08:01:09 15.5 27 22.8
002F0549 2019-04-20 07:26:16 15.7 27 22.8
002F0549 2019-04-20 06:51:24 15.7 27 22.8
002F0549 2019-04-20 06:16:32 15.5 27 22.8
002F0549 2019-04-20 05:41:39 15.7 27 22.6
002F0549 2019-04-20 05:06:46 15.7 27 22.7
002F0549 2019-04-20 04:31:54 15.5 27 22.6
002F0549 2019-04-20 03:57:01 15.6 27 22.6
002F0549 2019-04-20 03:22:08 15.7 27 22.4
002F0549 2019-04-20 02:47:17 15.7 27 22.2
002F0549 2019-04-20 02:12:24 15.7 27 22.2
002F0549 2019-04-20 01:37:29 15.7 27 21.9
002F0549 2019-04-20 01:02:35 15.7 27 21.7
002F0549 2019-04-20 00:27:41 15.8 27 21.7
002F0549 2019-04-19 23:52:47 15.9 27 21.5
002F0549 2019-04-19 23:17:55 15.9 27 21.4
002F0549 2019-04-19 22:43:04 15.9 27 21.3
002F0549 2019-04-19 22:08:14 15.9 27 21.5
002F0549 2019-04-19 21:33:19 15.9 27 21.4
002F0549 2019-04-19 20:58:24 15.9 27 21.4
002F0549 2019-04-19 20:23:30 15.9 27 21.2
002F0549 2019-04-19 19:48:35 16 27 21.1
002F0549 2019-04-19 19:13:41 16.1 27 21.1
002F0549 2019-04-19 18:38:45 16.1 27 21.2
002F0549 2019-04-19 18:03:51 16.1 27 21.2
002F0549 2019-04-19 17:28:58 16.1 26 21.2
002F0549 2019-04-19 16:54:06 16.1 26 21.2
002F0549 2019-04-19 16:19:13 16 26 21.2
002F0549 2019-04-19 15:44:22 15.9 26 21.4
002F0549 2019-04-19 15:09:30 15.9 26 21.4
002F0549 2019-04-19 14:34:40 15.9 26 21.6
002F0549 2019-04-19 13:59:49 15.9 26 21.8
002F0549 2019-04-19 13:24:57 15.9 26 21.9
002F0549 2019-04-19 12:50:05 15.9 26 22.2
002F0549 2019-04-19 12:15:13 15.9 26 22.5
002F0549 2019-04-19 11:40:21 15.8 26 22.6
002F0549 2019-04-19 11:05:30 15.7 26 22.9
002F0549 2019-04-19 10:30:38 15.7 26 23.1
002F0549 2019-04-19 09:55:44 15.8 26 23.2
002F0549 2019-04-19 09:20:49 15.7 26 23.4
002F0549 2019-04-19 08:11:02 15.7 26 23.6
002F0549 2019-04-19 07:36:08 15.7 26 23.6
002F0549 2019-04-19 07:01:13 15.7 26 23.5
002F0549 2019-04-19 06:26:20 15.9 26 23.4
002F0549 2019-04-19 05:51:28 15.9 26 23.6
002F0549 2019-04-19 05:16:36 15.9 26 23.8
002F0549 2019-04-19 04:41:43 15.8 26 23.7
002F0549 2019-04-19 04:06:51 15.9 26 23.6
002F0549 2019-04-19 03:31:58 15.9 26 23.6
002F0549 2019-04-19 02:57:06 15.9 26 23.6
002F0549 2019-04-19 02:22:15 15.9 26 23.6
002F0549 2019-04-19 01:47:23 15.9 26 23.9
002F0549 2019-04-19 01:12:30 16.1 26 24.1
002F0549 2019-04-19 00:37:37 16.1 26 24.2
002F0549 2019-04-19 00:02:44 16.1 26 24.3
002F0549 2019-04-18 23:27:51 16.3 25 24.6
002F0549 2019-04-18 22:52:59 16.3 25 24.6
002F0549 2019-04-18 22:18:06 16.3 25 24.7
002F0549 2019-04-18 21:43:14 16.5 25 25.1
002F0549 2019-04-18 21:08:23 16.5 25 25.1
002F0549 2019-04-18 20:33:29 16.5 25 25.1
002F0549 2019-04-18 19:58:37 16.5 25 25.1
002F0549 2019-04-18 19:23:44 16.5 25 25.1
002F0549 2019-04-18 18:48:52 16.5 25 25.1
002F0549 2019-04-18 18:13:58 16.5 25 25
002F0549 2019-04-18 17:39:07 16.6 25 25
002F0549 2019-04-18 17:04:14 16.5 25 25
002F0549 2019-04-18 16:29:22 16.5 25 25.1
002F0549 2019-04-18 15:54:28 16.4 25 25.2
002F0549 2019-04-18 15:19:34 16.3 25 25.2
002F0549 2019-04-18 14:44:41 16.3 25 25.1
002F0549 2019-04-18 14:09:47 16.3 25 25.2
002F0549 2019-04-18 13:34:53 16.1 25 25.3
002F0549 2019-04-18 12:59:57 16.1 25 25.2
002F0549 2019-04-18 12:25:01 16.1 25 25.2
002F0549 2019-04-18 11:50:05 16.1 25 25.1
002F0549 2019-04-18 11:15:09 16.1 25 25
002F0549 2019-04-18 10:40:15 16.3 25 24.8
002F0549 2019-04-18 10:05:18 16.1 25 24.7
002F0549 2019-04-18 09:30:22 16 25 24.9
002F0549 2019-04-18 08:55:28 16.1 25 24.9
002F0549 2019-04-18 08:20:33 16.3 25 24.7
002F0549 2019-04-18 07:45:39 16.3 25 24.3
002F0549 2019-04-18 07:10:43 16.4 24 24.3
002F0549 2019-04-18 06:35:48 16.3 24 24.3
002F0549 2019-04-18 06:00:55 16.3 24 24.2
002F0549 2019-04-18 05:26:00 16.2 24 24.2
002F0549 2019-04-18 04:51:06 16.1 24 24.3
002F0549 2019-04-18 04:16:11 16.1 24 24.4
002F0549 2019-04-18 03:41:17 16.1 24 24.2
002F0549 2019-04-18 03:06:22 16.1 24 24.2
002F0549 2019-04-18 02:31:28 16.1 24 24.1
002F0549 2019-04-18 01:56:34 16.3 24 24
002F0549 2019-04-18 01:21:40 16.3 24 23.8
002F0549 2019-04-18 00:46:46 16.5 24 23.7
002F0549 2019-04-18 00:11:52 16.5 24 23.6
002F0549 2019-04-17 23:36:57 16.8 24 23.5
002F0549 2019-04-17 23:02:02 16.8 24 23.4
002F0549 2019-04-17 22:27:08 16.8 24 23.4
002F0549 2019-04-17 21:52:14 16.8 24 23.3
002F0549 2019-04-17 21:17:20 16.8 24 23.3
002F0549 2019-04-17 20:42:26 16.7 24 23.2
002F0549 2019-04-17 20:07:31 16.7 24 23.1
002F0549 2019-04-17 19:32:35 16.7 24 22.3
002F0549 2019-04-17 18:57:42 16.7 24 22.2
002F0549 2019-04-17 18:22:48 16.8 24 22
002F0549 2019-04-17 17:47:56 16.8 24 22.1
002F0549 2019-04-17 17:13:05 16.7 23 21.9
002F0549 2019-04-17 16:38:13 16.8 23 21.6
002F0549 2019-04-17 16:03:21 16.7 23 21.5
002F0549 2019-04-17 15:28:29 16.6 23 21.4
002F0549 2019-04-17 14:53:37 16.7 23 22.1
002F0549 2019-04-17 14:18:44 16.8 23 21.9
002F0549 2019-04-17 13:43:55 17 23 22
002F0549 2019-04-17 13:08:59 17.1 23 21.9
002F0549 2019-04-17 12:34:07 17 23 21.8
002F0549 2019-04-17 11:59:14 17 23 21.7
002F0549 2019-04-17 11:24:22 17 23 21.7
002F0549 2019-04-17 10:49:30 17 23 21.5
002F0549 2019-04-17 10:14:36 17 23 21.5
002F0549 2019-04-17 09:39:44 17 23 21.4
002F0549 2019-04-17 09:04:51 17.1 23 21.2
002F0549 2019-04-17 08:29:59 17.2 23 21.2
002F0549 2019-04-17 07:55:06 17.2 23 21.3
002F0549 2019-04-17 07:20:14 17.4 23 21.4
002F0549 2019-04-17 06:45:21 17.7 23 21.3
002F0549 2019-04-17 06:10:28 17.6 23 21.6
002F0549 2019-04-17 05:35:35 17.6 23 21.7
002F0549 2019-04-17 05:00:42 17.8 22 21.6
002F0549 2019-04-17 04:25:48 17.9 22 21.4
002F0549 2019-04-17 03:50:56 17.9 22 21.4
002F0549 2019-04-17 03:16:05 18 22 20.9
002F0549 2019-04-17 02:41:14 18 22 20.8
002F0549 2019-04-17 02:06:23 18.2 22 20.8
002F0549 2019-04-17 01:31:34 18.3 22 20.8
002F0549 2019-04-17 00:56:43 18.2 22 20.6
002F0549 2019-04-17 00:21:52 18.3 22 18.8
002F0549 2019-04-16 23:47:00 18.2 22 18.4
002F0549 2019-04-16 23:12:06 18 22 18.2
002F0549 2019-04-16 22:37:13 18.3 22 18.2
002F0549 2019-04-16 22:02:21 18.6 22 18.2
002F0549 2019-04-16 21:27:29 18.8 22 18.4
002F0549 2019-04-16 20:52:37 19 22 18.3
002F0549 2019-04-16 20:17:45 19.1 22 18.6
002F0549 2019-04-16 19:42:52 19.1 22 18.5
002F0549 2019-04-16 19:07:58 19.2 22 18.5
002F0549 2019-04-16 18:33:04 19.1 22 18.8
002F0549 2019-04-16 17:58:12 19.1 22 18.6
002F0549 2019-04-16 16:48:24 19.4 22 18.3
002F0549 2019-04-16 16:13:29 19.5 21 18.2
002F0549 2019-04-16 15:38:36 19.7 22 18
002F0549 2019-04-16 15:03:45 20 21 17.1
002F0549 2019-04-16 14:28:54 20.4 21 16.5
002F0549 2019-04-16 13:19:11 21 21 16.9
002F0549 2019-04-16 12:44:21 20.9 21 16.8
002F0549 2019-04-16 12:09:32 20.8 21 16.9
002F0549 2019-04-16 11:34:41 20.9 21 17.1
002F0549 2019-04-16 10:59:52 20.8 21 17.5
002F0549 2019-04-16 10:24:57 20.9 21 17.6
002F0549 2019-04-16 09:50:08 20.9 21 17.4
002F0549 2019-04-16 09:15:21 20.8 21 17.7
002F0549 2019-04-16 08:40:28 20.8 21 17.7
002F0549 2019-04-16 08:05:33 20.9 21 17.8
002F0549 2019-04-16 07:30:42 20.8 21 17.9
002F0549 2019-04-16 06:55:48 20.8 21 17.9
002F0549 2019-04-16 06:20:57 20.8 21 18
002F0549 2019-04-16 05:46:03 20.8 21 18.1
002F0549 2019-04-16 05:11:09 20.8 21 18.2
002F0549 2019-04-16 04:36:19 20.8 21 18.2
002F0549 2019-04-16 04:01:25 20.8 21 18.2
002F0549 2019-04-16 03:26:36 20.9 21 18.3
002F0549 2019-04-16 02:51:43 20.9 21 18
002F0549 2019-04-16 02:16:53 20.9 21 18.2
002F0549 2019-04-16 01:42:02 20.8 20 18.5
002F0549 2019-04-16 01:07:12 20.9 20 19.1
002F0549 2019-04-16 00:32:23 20.9 20 19.4
002F0549 2019-04-15 23:57:34 20.9 20 19.7
002F0549 2019-04-15 23:22:46 20.9 20 21.3
002F0549 2019-04-15 22:47:54 21 20 22.3
002F0549 2019-04-15 22:13:04 21 20 22.9
002F0549 2019-04-15 21:38:11 21.1 20 23.3
002F0549 2019-04-15 21:03:19 21 20 23.8
002F0549 2019-04-15 20:28:28 21 20 24.4
002F0549 2019-04-15 19:53:36 21 19 24.7
002F0549 2019-04-15 19:18:44 21 19 24.8
002F0549 2019-04-15 18:43:51 21.1 19 25
002F0549 2019-04-15 18:09:01 21.1 19 25.1
002F0549 2019-04-15 17:34:05 21.3 19 25.2
002F0549 2019-04-15 16:59:13 21.3 19 25.6
002F0549 2019-04-15 16:24:18 21.3 19 25.7
002F0549 2019-04-15 15:49:24 21.5 18 26
002F0549 2019-04-15 14:39:40 21.5 18 26.2
002F0549 2019-04-15 14:04:49 21.7 18 26.2
002F0549 2019-04-15 13:29:57 21.9 17 26.3
002F0549 2019-04-15 12:55:08 22.1 17 26.4
002F0549 2019-04-15 12:20:17 22.3 16 26.6
002F0549 2019-04-15 11:45:25 22.1 16 26.9
002F0549 2019-04-15 11:10:35 22.1 16 27.1
002F0549 2019-04-15 10:35:45 22.1 16 27.1
002F0549 2019-04-15 10:00:54 22 17 27.2
002F0549 2019-04-15 09:26:03 21.9 17 27.2
002F0549 2019-04-15 08:51:12 21.9 17 27.2
002F0549 2019-04-15 08:16:21 21.8 16 27
002F0549 2019-04-15 07:41:30 21.7 17 26.8
002F0549 2019-04-15 07:06:39 21.7 17 26.6
002F0549 2019-04-15 06:31:50 21.7 17 26.7
002F0549 2019-04-15 05:57:01 21.7 17 26.6
002F0549 2019-04-15 05:22:10 21.7 17 26.4
002F0549 2019-04-15 04:47:17 21.7 17 26.3
002F0549 2019-04-15 04:12:26 21.7 17 26.3
002F0549 2019-04-15 03:37:36 21.7 17 26.3
002F0549 2019-04-15 03:02:46 21.6 17 26.4
002F0549 2019-04-15 02:27:56 21.7 17 26.4
002F0549 2019-04-15 01:53:06 21.6 17 26.2
002F0549 2019-04-15 01:18:17 21.7 18 26.2
002F0549 2019-04-15 00:43:28 21.7 17 26.2
002F0549 2019-04-15 00:08:38 21.6 18 26.3
002F0549 2019-04-14 23:33:48 21.5 18 26.4
002F0549 2019-04-14 22:58:57 21.7 17 26.5
002F0549 2019-04-14 22:24:06 21.7 18 26.8
002F0549 2019-04-14 21:49:15 21.7 18 26.8
002F0549 2019-04-14 21:14:24 21.8 18 26.5
002F0549 2019-04-14 20:39:33 21.9 18 26.5
002F0549 2019-04-14 20:04:43 21.9 18 26.5
002F0549 2019-04-14 19:29:51 21.9 18 26.7
002F0549 2019-04-14 18:55:00 21.9 18 26.8
002F0549 2019-04-14 18:20:09 21.8 18 26.9
002F0549 2019-04-14 17:45:18 21.7 18 26.9
002F0549 2019-04-14 17:10:28 21.7 18 26.9
002F0549 2019-04-14 16:35:37 21.7 18 27
002F0549 2019-04-14 16:00:48 21.7 18 27
002F0549 2019-04-14 15:25:58 21.7 18 27
002F0549 2019-04-14 14:51:07 21.7 18 27
002F0549 2019-04-14 14:16:16 21.8 18 27
002F0549 2019-04-14 13:41:24 21.7 18 27.1
002F0549 2019-04-14 13:06:32 21.7 18 27.2
002F0549 2019-04-14 12:31:41 21.7 18 27.1
002F0549 2019-04-14 11:56:50 21.7 18 27.2
002F0549 2019-04-14 11:21:59 21.8 18 27.2
002F0549 2019-04-14 10:47:07 21.7 18 27.2
002F0549 2019-04-14 10:12:17 21.7 18 27.2
002F0549 2019-04-14 09:37:26 21.8 18 27
002F0549 2019-04-14 09:02:35 21.7 18 27
002F0549 2019-04-14 08:27:45 21.7 18 26.9
002F0549 2019-04-14 07:52:54 21.7 18 26.7
002F0549 2019-04-14 07:18:03 21.7 18 26.6
002F0549 2019-04-14 06:43:12 21.7 18 26.5
002F0549 2019-04-14 06:08:18 21.7 18 26.7
002F0549 2019-04-14 05:33:26 21.7 18 27
002F0549 2019-04-14 04:58:33 21.7 18 26.8
002F0549 2019-04-14 04:23:42 21.7 18 26.9
002F0549 2019-04-14 03:48:51 21.7 18 26.8
002F0549 2019-04-14 03:14:01 21.7 18 26.7
002F0549 2019-04-14 02:39:10 21.7 18 26.7
002F0549 2019-04-14 02:04:20 21.8 18 26.7
002F0549 2019-04-14 01:29:30 21.9 18 26.7
002F0549 2019-04-14 00:54:39 21.9 18 26.6
002F0549 2019-04-14 00:19:47 21.9 18 26.6
002F0549 2019-04-13 23:44:54 21.9 18 26.7
002F0549 2019-04-13 23:10:01 21.9 18 26.6
002F0549 2019-04-13 22:35:08 21.9 18 26.5
002F0549 2019-04-13 22:00:14 21.9 17 26.6
002F0549 2019-04-13 21:25:21 21.9 17 26.4
002F0549 2019-04-13 20:50:27 21.9 17 26.5
002F0549 2019-04-13 20:15:35 21.9 17 26.6
002F0549 2019-04-13 19:40:43 21.9 17 26.6
002F0549 2019-04-13 19:05:51 22 18 26.8
002F0549 2019-04-13 18:31:01 22.1 18 26.9
002F0549 2019-04-13 17:56:09 22.1 18 27.1
002F0549 2019-04-13 17:21:19 22.2 18 27.1
002F0549 2019-04-13 16:46:28 22.1 18 27.3
002F0549 2019-04-13 16:11:36 22.1 18 27.4
002F0549 2019-04-13 15:36:45 22.2 18 27.2
002F0549 2019-04-13 15:01:54 22.1 18 26.9
002F0549 2019-04-13 14:27:02 22.2 18 26.8
002F0549 2019-04-13 13:52:11 22.1 18 26.6
002F0549 2019-04-13 13:17:20 22.2 18 26.6
002F0549 2019-04-13 12:42:29 22.2 18 26.9
002F0549 2019-04-13 12:07:38 22.2 18 26.8
002F0549 2019-04-13 11:32:45 22.2 18 26.7
002F0549 2019-04-13 10:57:53 22.2 18 26.7
002F0549 2019-04-13 10:23:01 22.2 18 26.8
002F0549 2019-04-13 09:48:11 22.2 18 26.8
002F0549 2019-04-13 09:13:20 22.1 17 26.7
002F0549 2019-04-13 08:38:27 22.1 17 26.8
002F0549 2019-04-13 08:03:34 22.1 17 27
002F0549 2019-04-13 07:28:40 22.2 17 26.9
002F0549 2019-04-13 06:53:47 22.2 17 26.9
002F0549 2019-04-13 06:18:53 22.1 17 26.9
002F0549 2019-04-13 05:43:59 22.2 17 26.7
002F0549 2019-04-13 05:09:06 22.1 17 26.7
002F0549 2019-04-13 04:34:14 22.1 17 26.3
002F0549 2019-04-13 03:59:22 22.1 17 26.2
002F0549 2019-04-13 03:24:30 22.2 17 25.9
002F0549 2019-04-13 02:49:36 22.2 17 25.9
002F0549 2019-04-13 02:14:42 22.3 17 25.6
002F0549 2019-04-13 01:39:48 22.3 18 25.6
002F0549 2019-04-13 01:04:54 22.3 18 25.6
002F0549 2019-04-13 00:30:00 22.4 18 25.7
002F0549 2019-04-12 23:55:05 22.4 18 25.9
002F0549 2019-04-12 23:20:13 22.4 18 25.9
002F0549 2019-04-12 22:45:20 22.5 18 26
002F0549 2019-04-12 22:10:27 22.5 18 25.7
002F0549 2019-04-12 21:35:34 22.6 18 25.7
002F0549 2019-04-12 21:00:40 22.6 19 25.7
002F0549 2019-04-12 20:25:46 22.6 18 25.8
002F0549 2019-04-12 19:50:52 22.6 18 25.6
002F0549 2019-04-12 19:15:59 22.6 18 25.5
002F0549 2019-04-12 18:41:07 22.7 17 25.6
002F0549 2019-04-12 18:06:14 22.8 17 25.2
002F0549 2019-04-12 17:31:20 23 17 24
002F0549 2019-04-12 16:56:26 23 18 24.4
002F0549 2019-04-12 16:21:33 23 18 24.6
002F0549 2019-04-12 15:46:39 23 18 24
002F0549 2019-04-12 15:11:46 22.8 18 24.1
002F0549 2019-04-12 14:36:52 22.5 19 24.1
002F0549 2019-04-12 14:01:57 22.3 19 25.3
002F0549 2019-04-12 13:27:03 21.5 21 24.6